Annette Island, AK

3:50 AM AKDT on August 19, 2017 (GMT -0800)
Annette Island

Weather History for PANT - November, 2013

Change the Weather History Date:

Friday, November 8, 2013

  Actual Average Record
Temperature  
Mean Temperature 42 °F 41 °F  
Max Temperature 44 °F 46 °F 54 °F (2002)
Min Temperature 39 °F 37 °F 19 °F (1973)
Degree Days  
Heating Degree Days 23 24  
Month to date heating degree days 186 185  
Since 1 July heating degree days 1260 1485  
Cooling Degree Days 0    
Month to date cooling degree days 0  
Year to date cooling degree days 22  
Moisture  
Dew Point 40 °F    
Average Humidity 0    
Maximum Humidity 0    
Minimum Humidity 0    
Precipitation  
Precipitation 0.69 in 0.42 in 2.73 in (2005)
Month to date precipitation 2.94 3.62  
Year to date precipitation 70.75 82.24  
Snow  
Snow 0.00 in 0.10 in 1.70 in (1966)
Month to date snowfall 0.0 0.6  
Since 1 July snowfall 0.0 0.7  
Since 1 September snowfall 0.0 0.7  
Snow Depth 0.00 in    
Sea Level Pressure  
Sea Level Pressure 29.84 in    
Wind  
Wind Speed 8 mph (ESE)    
Max Wind Speed 20 mph    
Max Gust Speed 25 mph    
Visibility 9 miles    
Events Rain    
T = Trace of Precipitation, MM = Missing Value Source: NWS Daily Summary

Daily Weather History Graph

Daily Weather History Graph

Search for Another Location

Airport or City:

Trip Planner

Search our weather history database for the weather conditions in past years. The results will help you decide how hot, cold, wet, or windy it might be!

Date:

Astronomy

Nov. 08, 2013 Rise Set
Actual Time 7:05 AM AKST 3:54 PM AKST
Civil Twilight 6:25 AM AKST 4:33 PM AKST
Nautical Twilight 5:41 AM AKST 5:17 PM AKST
Astronomical Twilight 4:59 AM AKST 5:59 PM AKST
Moon 12:05 PM AKST (11/8) 9:27 PM AKST (11/8)
Length of Visible Light 10h 08m
Length of Day
8h 48m
Waxing Crescent, 34% of the Moon is Illuminated
Nov 8
Waxing Crescent
Nov 9
First Quarter
Nov 17
Full
Nov 25
Last Quarter
Dec 2
New

Hourly Weather History & Observations

Time (AKST) Temp. Windchill Dew Point Humidity Pressure Visibility Wind Dir Wind Speed Gust Speed Precip Events Conditions
12:53 AM 39.9 °F - 39.0 °F 97% 29.83 in 10.0 mi Calm Calm - N/A   Overcast
1:24 AM 42.1 °F 39.2 °F 39.9 °F 92% 29.82 in 10.0 mi SE 4.6 mph - N/A   Overcast
1:53 AM 42.1 °F 39.2 °F 39.9 °F 92% 29.82 in 10.0 mi SE 4.6 mph - N/A   Overcast
2:40 AM 42.1 °F 39.2 °F 39.9 °F 92% 29.82 in 10.0 mi SE 4.6 mph - N/A   Mostly Cloudy
3:15 AM 43.0 °F 40.3 °F 39.9 °F 89% 29.81 in 10.0 mi ESE 4.6 mph - N/A   Overcast
3:53 AM 43.0 °F 40.3 °F 39.9 °F 89% 29.82 in 10.0 mi ESE 4.6 mph - N/A   Overcast
4:53 AM 43.0 °F 39.5 °F 41.0 °F 93% 29.81 in 10.0 mi SE 5.8 mph - 0.01 in   Overcast
5:53 AM 44.1 °F 40.1 °F 39.9 °F 85% 29.81 in 10.0 mi ESE 6.9 mph - 0.00 in   Overcast
6:53 AM 44.1 °F 38.6 °F 42.1 °F 93% 29.80 in 10.0 mi SE 10.4 mph - 0.00 in Rain Light Rain
7:30 AM 44.1 °F 40.1 °F 41.0 °F 89% 29.79 in 10.0 mi ESE 6.9 mph - 0.02 in   Overcast
7:53 AM 44.1 °F 37.7 °F 42.1 °F 93% 29.81 in 3.0 mi SE 12.7 mph 19.6 mph 0.03 in Rain Rain
8:30 AM 44.1 °F 37.7 °F 43.0 °F 96% 29.80 in 10.0 mi ESE 12.7 mph - 0.02 in   Overcast
8:50 AM 44.6 °F 38.8 °F 42.8 °F 93% 29.80 in 10.0 mi ESE 11.5 mph 18.4 mph 0.02 in Rain Light Rain
8:53 AM 44.1 °F 37.7 °F 42.1 °F 93% 29.81 in 10.0 mi ESE 12.7 mph 18.4 mph 0.02 in Rain Light Rain
9:36 AM 44.1 °F 38.1 °F 41.0 °F 89% 29.81 in 7.0 mi ESE 11.5 mph - 0.02 in Rain Light Rain
9:43 AM 44.1 °F 38.1 °F 41.0 °F 89% 29.81 in 7.0 mi ESE 11.5 mph 19.6 mph 0.02 in Rain Light Rain
9:53 AM 43.0 °F 37.2 °F 41.0 °F 93% 29.81 in 6.0 mi ESE 10.4 mph 18.4 mph 0.03 in Rain Light Rain
10:53 AM 43.0 °F 36.8 °F 41.0 °F 93% 29.79 in 10.0 mi ESE 11.5 mph 21.9 mph 0.04 in Rain Light Rain
11:53 AM 43.0 °F 36.0 °F 39.0 °F 86% 29.78 in 10.0 mi ESE 13.8 mph 21.9 mph 0.02 in   Overcast
12:53 PM 43.0 °F 36.4 °F 39.9 °F 89% 29.78 in 10.0 mi ESE 12.7 mph 19.6 mph 0.00 in Rain Light Rain
1:53 PM 43.0 °F 36.0 °F 39.9 °F 89% 29.79 in 10.0 mi ESE 13.8 mph 21.9 mph 0.01 in   Overcast
2:53 PM 43.0 °F 35.7 °F 39.0 °F 86% 29.79 in 10.0 mi ESE 15.0 mph - 0.00 in   Overcast
3:50 PM 42.8 °F 36.2 °F 39.2 °F 87% 29.80 in 10.0 mi ESE 12.7 mph 19.6 mph 0.02 in Rain Light Rain
3:53 PM 43.0 °F 36.8 °F 39.9 °F 89% 29.81 in 10.0 mi ESE 11.5 mph - 0.02 in Rain Light Rain
4:14 PM 42.1 °F 35.7 °F 39.9 °F 92% 29.80 in 6.0 mi ESE 11.5 mph 19.6 mph 0.04 in Rain Light Rain
4:53 PM 43.0 °F 38.8 °F 41.0 °F 93% 29.82 in 10.0 mi ESE 6.9 mph - 0.06 in Rain Light Rain
5:53 PM 43.0 °F 40.3 °F 39.9 °F 89% 29.84 in 10.0 mi SSE 4.6 mph - 0.01 in Rain Light Rain
6:53 PM 42.1 °F - 41.0 °F 96% 29.87 in 10.0 mi Calm Calm - 0.06 in   Overcast
7:27 PM 42.1 °F 37.1 °F 39.9 °F 92% 29.88 in 10.0 mi ESE 8.1 mph - 0.00 in Rain Light Rain
7:42 PM 42.1 °F 37.1 °F 39.9 °F 92% 29.88 in 6.0 mi ESE 8.1 mph - 0.02 in Rain Rain
7:53 PM 42.1 °F 37.7 °F 39.9 °F 92% 29.90 in 10.0 mi ESE 6.9 mph - 0.02 in Rain Light Rain
8:12 PM 42.1 °F 39.2 °F 39.9 °F 92% 29.90 in 10.0 mi SE 4.6 mph - 0.01 in Rain Light Rain
8:53 PM 42.1 °F - 39.0 °F 89% 29.91 in 10.0 mi Calm Calm - 0.02 in Rain Light Rain
9:25 PM 42.1 °F 37.7 °F 39.9 °F 92% 29.92 in 10.0 mi ESE 6.9 mph - 0.00 in Rain Light Rain
9:53 PM 42.1 °F 38.4 °F 41.0 °F 96% 29.94 in 10.0 mi ESE 5.8 mph - 0.00 in Rain Light Rain
10:04 PM 42.1 °F 38.4 °F 39.0 °F 89% 29.93 in 10.0 mi ESE 5.8 mph - 0.01 in Rain Light Rain
10:53 PM 41.0 °F 36.4 °F 37.9 °F 89% 29.96 in 6.0 mi SE 6.9 mph - 0.12 in Rain Rain
11:53 PM 41.0 °F 38.0 °F 39.9 °F 96% 29.98 in 6.0 mi North 4.6 mph - 0.21 in Rain Rain